Location: Graswijk
(52.9667°N, 6.5500°E)
Time: 12:03:19
(UTC+00:00)

COSMOS 2428 - Pass Details

Date: 15 May 2026
Orbit: 844 x 855 km, 70.9° (Epoch: 5 June)

Event Time Altitude Azimuth Distance (km) Brightness Sun altitude
Rises 21:04:30 0° 328° (NNW) 3,429 8.1 -11.4°
Reaches altitude 10° 21:07:08 10° 336° (NNW) 2,488 6.6 -11.6°
Maximum altitude 21:12:28 39° 45° (NE) 1,264 3.7 -12.1°
Enters shadow 21:17:35 11° 113° (ESE) 2,416 4.6 -12.5°
